Home   Weather   Fairfield   Past weeks
Flag for USA

Past Weather in Fairfield, Georgia, USA — Yesterday and Last 2 Weeks

Now
59 °F

Scattered clouds.


Feels Like: 59 °F
Forecast: 64 / 35 °F
Wind: 5 mph from South

Location: Houston County Airport

Current Time: Dec 6, 2019 at 1:08:38 pm

Latest Report: Dec 6, 2019 at 12:15 pm


Visibility: 10 mi

Pressure: 30.20 "Hg

Humidity: 50%

Dew Point: 41 °F

Location of FairfieldLocation

Past Weather in Fairfield — Graph

°F

Fairfield Temperature Yesterday

Maximum temperature yesterday: 67 °F (at 3:15 pm)
Minimum temperature yesterday: 34 °F (at 5:35 am)
Average temperature yesterday: 48 °F

High & Low Weather Summary for the Past Weeks

 TemperatureHumidityPressure
High76 °F (Nov 27, 3:35 pm)99% (Nov 23, 5:55 am)30.30 "Hg (Nov 23, 5:55 am)
Low30 °F (Dec 3, 5:15 am)18% (Dec 5, 4:15 pm)29.69 "Hg (Dec 1, 2:35 pm)
Average52 °F72%30.02 "Hg
* Reported Nov 21 11:15 am — Dec 6 11:55 am, Fairfield. Weather by CustomWeather, © 2019

Note: Actual official high and low records may vary slightly from our data, if they occured in-between our weather recording intervals... More about our weather records

Fairfield Weather History for the Previous 24 Hours

Scroll right to see more
 ConditionsComfort  
Time TempWeatherWind HumidityBarometerVisibility
11:55 am
Fri, Dec 6
58 °FScattered clouds.7 mph51%30.23 "Hg10 mi
11:35 am58 °FScattered clouds.5 mph52%30.22 "Hg10 mi
11:15 am58 °FScattered clouds.5 mph49%30.24 "Hg7 mi
10:55 am56 °FScattered clouds.No wind55%30.24 "Hg10 mi
10:35 am53 °FScattered clouds.No wind58%30.24 "Hg10 mi
10:15 am50 °FPartly sunny.No wind69%30.24 "Hg10 mi
9:35 am46 °FScattered clouds.No wind82%30.23 "Hg10 mi
9:15 am44 °FPartly sunny.No wind84%30.23 "Hg10 mi
8:55 am42 °FScattered clouds.No wind86%30.22 "Hg10 mi
8:35 am40 °FSunny.No wind92%30.23 "Hg10 mi
8:15 am38 °FSunny.No wind95%30.22 "Hg10 mi
7:55 am37 °FScattered clouds.No wind95%30.22 "Hg10 mi
7:35 am36 °FSunny.5 mph95%30.20 "Hg10 mi
7:15 am36 °FClear.No wind94%30.21 "Hg10 mi
6:55 am35 °FClear.No wind95%30.21 "Hg10 mi
6:35 am35 °FClear.No wind94%30.21 "Hg10 mi
6:15 am34 °FClear.3 mph95%30.20 "Hg10 mi
5:55 am34 °FChilly.8 mph97%30.19 "HgN/A
5:35 am34 °FClear.No wind94%30.19 "Hg10 mi
5:15 am34 °FClear.No wind95%30.20 "Hg10 mi
4:55 am34 °FClear.No wind95%30.18 "Hg10 mi
4:35 am35 °FClear.No wind94%30.19 "Hg10 mi
4:15 am34 °FClear.No wind96%30.19 "Hg10 mi
3:35 am35 °FClear.No wind94%30.20 "Hg10 mi
3:15 am35 °FClear.No wind92%30.20 "Hg10 mi
2:55 am35 °FClear.No wind94%30.20 "Hg10 mi
2:35 am35 °FClear.No wind93%30.20 "Hg10 mi
2:15 am36 °FClear.No wind90%30.20 "Hg10 mi
1:55 am36 °FClear.No wind92%30.19 "Hg10 mi
1:35 am36 °FClear.No wind90%30.19 "Hg10 mi
1:15 am36 °FClear.No wind90%30.19 "Hg10 mi
12:55 am36 °FClear.3 mph89%30.19 "Hg10 mi
12:35 am36 °FClear.No wind91%30.19 "Hg10 mi
12:15 am37 °FClear.No wind88%30.19 "Hg10 mi
11:55 pm
Thu, Dec 5
37 °FClear.No wind91%30.19 "Hg10 mi
11:35 pm38 °FClear.No wind85%30.18 "Hg10 mi
11:15 pm38 °FClear.No wind82%30.19 "Hg10 mi
10:55 pm38 °FClear.No wind86%30.19 "Hg10 mi
10:35 pm40 °FClear.No wind77%30.19 "Hg10 mi
10:15 pm40 °FClear.No wind77%30.18 "Hg10 mi
9:55 pm40 °FClear.No wind78%30.18 "Hg10 mi
9:35 pm40 °FClear.No wind80%30.17 "Hg10 mi
9:15 pm40 °FClear.No wind88%30.18 "Hg10 mi
8:55 pm41 °FClear.No wind80%30.18 "Hg10 mi
8:35 pm42 °FClear.No wind77%30.17 "Hg10 mi
8:15 pm43 °FClear.No wind74%30.17 "Hg10 mi
7:35 pm46 °FClear.No wind62%30.16 "Hg10 mi
6:55 pm51 °FClear.No wind51%30.15 "Hg10 mi
6:35 pm50 °FClear.3 mph54%30.15 "Hg10 mi
6:15 pm52 °FClear.No windN/A30.15 "Hg10 mi
5:35 pm58 °FClear.No wind38%30.13 "Hg10 mi
4:55 pm66 °FSunny.3 mph24%30.12 "Hg10 mi
4:35 pm66 °FSunny.3 mph21%30.12 "Hg10 mi
4:15 pm67 °FSunny.No wind18%30.11 "Hg10 mi
3:55 pm67 °FSunny.No wind19%30.11 "Hg10 mi
3:35 pm67 °FSunny.6 mph19%30.11 "Hg10 mi
3:15 pm67 °FSunny.5 mph20%30.11 "Hg10 mi
2:55 pm67 °FSunny.8 mph19%30.10 "Hg10 mi
2:35 pm67 °FSunny.6 mph20%30.10 "Hg10 mi
2:15 pm67 °FSunny.9 mph20%30.11 "Hg10 mi
1:55 pm66 °FSunny.7 mph21%30.11 "Hg10 mi
1:35 pm65 °FSunny.7 mph22%30.11 "Hg10 mi
1:15 pm65 °FSunny.8 mph23%30.12 "Hg10 mi
Weather by CustomWeather, © 2019

See weather overview

Advertising